Starlink 31929

operational
NORAD ID: 59836 Int'l Des: 2024-097 Owner: SPXS Country: US Constellation: starlink
LEOCIRCULAR

About Starlink 31929

Description loading...

Live Position

Loading 3D Globe...

Upcoming Passes

Altitude History

Altitude vs Time

uPlot chart will show altitude changes over time

Two-Line Element Set

1 59836U 24097B 25352.15523334 -.00001337 00000-0 -39081-4 0 9997
2 59836 43.0016 15.1301 0001415 271.6639 88.4051 15.27572090 89442
Epoch: Dec 18, 2025 • Age: 11 hours

Current Status

Altitude 487.1 km
Velocity 7.62 km/s
Sub-Earth Point -20.43°S, 43.05°E
Launch Date May 23, 2024
Age 1.5 years
Type internet

Technical Details

Classification Payload
Mass 730.00 kg
Dry Mass 700.00 kg
Total Mass 730.00 kg
Length 0.30 m
Diameter 4.10 m
Span 29.00 m
Shape Box + pan
Manufacturer SPXS
Bus Type Starlink V2M
Phase Status In Orbit
Owner/State SPXS/US

Large Constellations

Loading constellations...